FCYJMS CYAM-KAVL

Flight info

Callsign FCYJMS
Flight time 1h 54m
Altitude 38000
Route CATGA DCT TVC J548 ADALE/N0455F370 J34 CRL/N0458F380 J43 FLM/N0457F370 J43 VXV DCT AUBRY DCT PUPDG DCT RIGEL
Aircraft A320/M-SDE3FGHIRWY/LB1

Departure

Time 2026-05-09 05:20
Airport Sault Ste Marie Airport (CYAM)

Arrival

Time 2026-05-09 07:15
Airport Asheville Regional Airport (KAVL)
Time Latitude Longitude Altitude Speed Heading
2026-05-09 05:06 46.48327 -84.49677 634 ft 0 kts 289°
2026-05-09 05:16 46.48327 -84.49678 634 ft 0 kts 297°
2026-05-09 05:16 46.48328 -84.49682 634 ft 1 kts 295°
2026-05-09 05:16 46.48334 -84.49694 634 ft 1 kts 301°
2026-05-09 05:16 46.48334 -84.49725 634 ft 4 kts 248°
2026-05-09 05:17 46.48294 -84.49755 634 ft 8 kts 199°
2026-05-09 05:17 46.48283 -84.49818 634 ft 7 kts 281°
2026-05-09 05:17 46.48300 -84.49912 634 ft 11 kts 286°
2026-05-09 05:17 46.48324 -84.50035 634 ft 14 kts 285°
2026-05-09 05:18 46.48360 -84.50181 634 ft 15 kts 303°
2026-05-09 05:18 46.48451 -84.50271 634 ft 16 kts 338°
2026-05-09 05:18 46.48562 -84.50303 634 ft 16 kts 18°
2026-05-09 05:18 46.48669 -84.50223 634 ft 17 kts 29°
2026-05-09 05:19 46.48770 -84.50129 634 ft 17 kts 33°
2026-05-09 05:19 46.48812 -84.50090 634 ft 0 kts 30°
2026-05-09 05:19 46.48886 -84.50146 634 ft 35 kts 304°
2026-05-09 05:19 46.48911 -84.50292 634 ft 0 kts 212°
2026-05-09 05:20 46.48741 -84.50449 634 ft 73 kts 212°
2026-05-09 05:20 46.48069 -84.51054 638 ft 150 kts 211°
2026-05-09 05:20 46.47166 -84.51846 1422 ft 154 kts 208°
2026-05-09 05:20 46.46202 -84.52441 2238 ft 152 kts 201°
2026-05-09 05:21 46.45190 -84.52970 2746 ft 166 kts 204°
2026-05-09 05:21 46.44060 -84.53622 3274 ft 183 kts 205°
2026-05-09 05:21 46.42836 -84.54339 3829 ft 200 kts 206°
2026-05-09 05:21 46.41500 -84.55127 4401 ft 217 kts 206°
2026-05-09 05:22 46.40057 -84.55981 4973 ft 235 kts 206°
2026-05-09 05:22 46.38494 -84.56905 5545 ft 252 kts 206°
2026-05-09 05:22 46.36827 -84.57886 6279 ft 263 kts 206°
2026-05-09 05:22 46.35122 -84.58886 7185 ft 267 kts 206°
2026-05-09 05:23 46.33429 -84.59879 8061 ft 270 kts 207°
2026-05-09 05:23 46.31666 -84.60914 8923 ft 274 kts 207°
2026-05-09 05:23 46.29900 -84.61952 9758 ft 278 kts 207°
2026-05-09 05:23 46.28115 -84.63002 10522 ft 284 kts 207°
2026-05-09 05:24 46.26235 -84.64114 10984 ft 301 kts 207°
2026-05-09 05:24 46.24234 -84.65297 11379 ft 318 kts 207°
2026-05-09 05:24 46.22158 -84.66520 11935 ft 329 kts 207°
2026-05-09 05:24 46.20042 -84.67757 12609 ft 333 kts 207°
2026-05-09 05:25 46.17872 -84.69025 13309 ft 337 kts 207°
2026-05-09 05:25 46.15674 -84.70308 13942 ft 342 kts 207°
2026-05-09 05:25 46.11212 -84.72913 15212 ft 351 kts 208°
2026-05-09 05:26 46.08960 -84.74226 15840 ft 355 kts 208°
2026-05-09 05:26 46.06670 -84.75562 16445 ft 359 kts 208°
2026-05-09 05:26 46.04329 -84.76926 17039 ft 363 kts 208°
2026-05-09 05:26 46.02012 -84.78276 17639 ft 366 kts 208°
2026-05-09 05:27 45.99635 -84.79660 18224 ft 369 kts 208°
2026-05-09 05:27 45.97241 -84.81051 18775 ft 373 kts 208°
2026-05-09 05:27 45.94832 -84.82450 19323 ft 375 kts 208°
2026-05-09 05:27 45.92408 -84.83855 19851 ft 379 kts 208°
2026-05-09 05:28 45.89964 -84.85273 20366 ft 382 kts 208°
2026-05-09 05:28 45.87454 -84.86727 20874 ft 385 kts 208°
2026-05-09 05:28 45.84962 -84.88168 21353 ft 388 kts 209°
2026-05-09 05:28 45.82462 -84.89613 21810 ft 391 kts 209°
2026-05-09 05:29 45.79918 -84.91081 22260 ft 394 kts 209°
2026-05-09 05:29 45.77366 -84.92554 22715 ft 397 kts 209°
2026-05-09 05:29 45.74829 -84.94016 23146 ft 400 kts 209°
2026-05-09 05:29 45.72226 -84.95515 23566 ft 403 kts 209°
2026-05-09 05:30 45.69610 -84.97021 23966 ft 406 kts 209°
2026-05-09 05:30 45.66978 -84.98531 24378 ft 409 kts 209°
2026-05-09 05:30 45.64365 -85.00029 24792 ft 412 kts 209°
2026-05-09 05:30 45.61691 -85.01560 25239 ft 413 kts 210°
2026-05-09 05:31 45.59036 -85.03079 25673 ft 414 kts 210°
2026-05-09 05:31 45.56367 -85.04607 26066 ft 417 kts 210°
2026-05-09 05:31 45.53677 -85.06144 26452 ft 419 kts 210°
2026-05-09 05:31 45.50967 -85.07693 26838 ft 421 kts 210°
2026-05-09 05:32 45.48233 -85.09255 27203 ft 423 kts 210°
2026-05-09 05:32 45.45483 -85.10822 27571 ft 425 kts 210°
2026-05-09 05:32 45.42752 -85.12376 27924 ft 427 kts 210°
2026-05-09 05:32 45.39974 -85.13956 28258 ft 430 kts 210°
2026-05-09 05:33 45.37208 -85.15527 28579 ft 432 kts 210°
2026-05-09 05:33 45.34446 -85.17094 28914 ft 433 kts 210°
2026-05-09 05:33 45.31617 -85.18697 29219 ft 435 kts 210°
2026-05-09 05:33 45.28804 -85.20290 29523 ft 437 kts 210°
2026-05-09 05:34 45.25973 -85.21891 29819 ft 439 kts 210°
2026-05-09 05:34 45.23150 -85.23488 30118 ft 441 kts 210°
2026-05-09 05:34 45.20294 -85.25100 30381 ft 443 kts 210°
2026-05-09 05:34 45.17454 -85.26700 30668 ft 444 kts 210°
2026-05-09 05:35 45.14571 -85.28324 30917 ft 445 kts 210°
2026-05-09 05:35 45.11676 -85.29953 31155 ft 447 kts 210°
2026-05-09 05:35 45.08789 -85.31574 31389 ft 448 kts 210°
2026-05-09 05:35 45.05918 -85.33184 31676 ft 447 kts 210°
2026-05-09 05:36 45.03039 -85.34796 32011 ft 446 kts 210°
2026-05-09 05:36 45.00165 -85.36403 32368 ft 443 kts 210°
2026-05-09 05:36 44.97302 -85.38006 32647 ft 443 kts 210°
2026-05-09 05:36 44.94437 -85.39608 32945 ft 442 kts 210°
2026-05-09 05:37 44.91611 -85.41185 33245 ft 441 kts 210°
2026-05-09 05:37 44.88740 -85.42786 33526 ft 439 kts 210°
2026-05-09 05:37 44.85867 -85.44386 33809 ft 438 kts 210°
2026-05-09 05:37 44.83055 -85.45950 34058 ft 436 kts 210°
2026-05-09 05:38 44.80260 -85.47505 34249 ft 436 kts 210°
2026-05-09 05:38 44.77409 -85.49091 34440 ft 437 kts 210°
2026-05-09 05:38 44.74611 -85.50643 34596 ft 438 kts 210°
2026-05-09 05:38 44.71757 -85.52226 34743 ft 438 kts 210°
2026-05-09 05:39 44.68897 -85.53696 34892 ft 442 kts 207°
2026-05-09 05:39 44.65917 -85.54967 35022 ft 447 kts 204°
2026-05-09 05:39 44.62898 -85.55991 35144 ft 451 kts 200°
2026-05-09 05:39 44.59830 -85.56811 35276 ft 453 kts 199°
2026-05-09 05:40 44.56739 -85.57611 35402 ft 453 kts 199°
2026-05-09 05:40 44.53607 -85.58423 35532 ft 453 kts 199°
2026-05-09 05:40 44.50550 -85.59216 35650 ft 453 kts 199°
2026-05-09 05:40 44.47423 -85.60027 35762 ft 453 kts 199°
2026-05-09 05:41 44.41250 -85.61629 35882 ft 454 kts 199°
2026-05-09 05:41 44.35019 -85.63242 35894 ft 455 kts 199°
2026-05-09 05:42 44.28784 -85.64854 35899 ft 455 kts 199°
2026-05-09 05:42 44.22588 -85.66450 35899 ft 455 kts 198°
2026-05-09 05:43 44.16341 -85.68059 35911 ft 455 kts 198°
2026-05-09 05:43 44.10113 -85.69656 35916 ft 454 kts 198°
2026-05-09 05:44 44.03899 -85.71249 35911 ft 454 kts 198°
2026-05-09 05:44 43.97703 -85.72833 35912 ft 453 kts 198°
2026-05-09 05:45 43.91507 -85.74412 35912 ft 453 kts 198°
2026-05-09 05:45 43.85268 -85.76000 35912 ft 453 kts 198°
2026-05-09 05:46 43.79111 -85.77560 35916 ft 453 kts 198°
2026-05-09 05:46 43.72912 -85.79130 35915 ft 452 kts 198°
2026-05-09 05:47 43.66748 -85.80690 35926 ft 452 kts 198°
2026-05-09 05:47 43.60537 -85.82259 35933 ft 452 kts 198°
2026-05-09 05:48 43.54384 -85.83810 35928 ft 452 kts 198°
2026-05-09 05:48 43.48217 -85.85362 35920 ft 451 kts 198°
2026-05-09 05:49 43.42049 -85.86910 35919 ft 451 kts 198°
2026-05-09 05:49 43.35871 -85.88457 35918 ft 450 kts 198°
2026-05-09 05:50 43.29720 -85.89997 35934 ft 450 kts 198°
2026-05-09 05:50 43.23582 -85.91528 35943 ft 450 kts 198°
2026-05-09 05:51 43.17437 -85.93057 35936 ft 451 kts 199°
2026-05-09 05:51 43.11296 -85.94583 35928 ft 449 kts 199°
2026-05-09 05:52 43.05164 -85.96120 35927 ft 448 kts 199°
2026-05-09 05:52 42.99014 -85.97659 35924 ft 448 kts 199°
2026-05-09 05:53 42.92735 -85.98081 35919 ft 474 kts 176°
2026-05-09 05:53 42.89582 -85.96628 35918 ft 490 kts 159°
2026-05-09 05:53 42.86713 -85.93942 35919 ft 505 kts 141°
2026-05-09 05:54 42.84464 -85.90185 35917 ft 516 kts 122°
2026-05-09 05:54 42.83090 -85.85694 35920 ft 519 kts 103°
2026-05-09 05:54 42.81934 -85.76000 35930 ft 518 kts 97°
2026-05-09 05:55 42.80840 -85.66315 35930 ft 518 kts 99°
2026-05-09 05:55 42.79556 -85.56754 35926 ft 518 kts 102°
2026-05-09 05:56 42.77585 -85.47315 35929 ft 518 kts 110°
2026-05-09 05:56 42.74744 -85.38322 35935 ft 517 kts 117°
2026-05-09 05:57 42.71603 -85.29526 35932 ft 517 kts 118°
2026-05-09 05:57 42.68485 -85.20719 35933 ft 517 kts 118°
2026-05-09 05:58 42.65381 -85.11923 35930 ft 518 kts 118°
2026-05-09 05:58 42.62272 -85.03158 35938 ft 518 kts 117°
2026-05-09 05:59 42.59129 -84.94324 35937 ft 519 kts 117°
2026-05-09 05:59 42.57567 -84.89939 35680 ft 519 kts 117°
2026-05-09 05:59 42.56000 -84.85545 35791 ft 519 kts 118°
2026-05-09 06:00 42.52826 -84.76677 35898 ft 522 kts 118°
2026-05-09 06:00 42.49660 -84.67853 35934 ft 522 kts 118°
2026-05-09 06:01 42.46502 -84.59084 35943 ft 523 kts 118°
2026-05-09 06:01 42.43293 -84.50197 35948 ft 523 kts 118°
2026-05-09 06:02 42.40090 -84.41366 35946 ft 524 kts 118°
2026-05-09 06:02 42.36872 -84.32527 35946 ft 524 kts 118°
2026-05-09 06:03 42.33643 -84.23673 35950 ft 524 kts 118°
2026-05-09 06:03 42.30417 -84.14855 35951 ft 524 kts 119°
2026-05-09 06:04 42.27179 -84.06032 35951 ft 525 kts 118°
2026-05-09 06:04 42.23943 -83.97242 35947 ft 525 kts 118°
2026-05-09 06:05 42.20692 -83.88439 35944 ft 525 kts 118°
2026-05-09 06:05 42.17488 -83.79785 35938 ft 526 kts 118°
2026-05-09 06:06 42.14213 -83.70959 35947 ft 526 kts 118°
2026-05-09 06:06 42.10933 -83.62161 35948 ft 526 kts 118°
2026-05-09 06:07 42.06846 -83.54194 35947 ft 514 kts 143°
2026-05-09 06:07 42.03973 -83.51432 35954 ft 500 kts 159°
2026-05-09 06:07 42.00797 -83.49752 35950 ft 481 kts 175°
2026-05-09 06:08 41.97531 -83.49125 35960 ft 468 kts 186°
2026-05-09 06:08 41.94369 -83.49287 35964 ft 454 kts 197°
2026-05-09 06:08 41.88290 -83.51226 35967 ft 444 kts 205°
2026-05-09 06:09 41.82300 -83.53387 35974 ft 446 kts 204°
2026-05-09 06:09 41.76289 -83.55450 35971 ft 446 kts 204°
2026-05-09 06:10 41.70273 -83.57485 35971 ft 446 kts 204°
2026-05-09 06:10 41.64230 -83.59523 35971 ft 446 kts 204°
2026-05-09 06:11 41.58252 -83.61536 35976 ft 445 kts 204°
2026-05-09 06:11 41.52253 -83.63560 35977 ft 446 kts 204°
2026-05-09 06:12 41.46199 -83.65595 35978 ft 446 kts 204°
2026-05-09 06:12 41.40211 -83.67603 35974 ft 446 kts 204°
2026-05-09 06:13 41.34193 -83.69617 35981 ft 446 kts 204°
2026-05-09 06:13 41.28179 -83.71625 35981 ft 445 kts 204°
2026-05-09 06:14 41.22159 -83.73631 35981 ft 445 kts 204°
2026-05-09 06:14 41.16161 -83.75628 35982 ft 445 kts 204°
2026-05-09 06:15 41.10159 -83.77621 35987 ft 445 kts 204°
2026-05-09 06:15 41.04173 -83.79605 35992 ft 444 kts 204°
2026-05-09 06:16 40.98162 -83.81594 36269 ft 445 kts 204°
2026-05-09 06:16 40.95163 -83.82586 36163 ft 442 kts 204°
2026-05-09 06:16 40.92171 -83.83572 36071 ft 442 kts 204°
2026-05-09 06:17 40.86212 -83.85535 36004 ft 441 kts 204°
2026-05-09 06:17 40.80248 -83.87498 35993 ft 440 kts 204°
2026-05-09 06:18 40.74334 -83.89441 35976 ft 440 kts 204°
2026-05-09 06:18 40.68361 -83.91398 35972 ft 442 kts 204°
2026-05-09 06:19 40.62445 -83.93335 35981 ft 440 kts 204°
2026-05-09 06:19 40.56462 -83.95289 35972 ft 440 kts 205°
2026-05-09 06:20 40.50535 -83.97220 35988 ft 439 kts 205°
2026-05-09 06:20 40.44624 -83.99145 35991 ft 439 kts 205°
2026-05-09 06:21 40.38676 -84.01078 35985 ft 439 kts 205°
2026-05-09 06:21 40.32772 -84.02991 35992 ft 440 kts 205°
2026-05-09 06:22 40.26722 -84.04617 36014 ft 447 kts 200°
2026-05-09 06:22 40.20558 -84.05662 35999 ft 449 kts 199°
2026-05-09 06:23 40.14345 -84.06697 36006 ft 449 kts 199°
2026-05-09 06:23 40.08176 -84.07723 36012 ft 448 kts 199°
2026-05-09 06:24 40.01984 -84.08751 36014 ft 449 kts 199°
2026-05-09 06:24 39.95777 -84.09782 36016 ft 449 kts 200°
2026-05-09 06:25 39.89606 -84.10799 36021 ft 446 kts 200°
2026-05-09 06:25 39.83384 -84.11829 36019 ft 447 kts 200°
2026-05-09 06:26 39.80312 -84.12335 35792 ft 445 kts 200°
2026-05-09 06:26 39.77231 -84.12843 35934 ft 446 kts 200°
2026-05-09 06:26 39.71037 -84.13866 36014 ft 448 kts 200°
2026-05-09 06:27 39.64857 -84.14880 36028 ft 449 kts 200°
2026-05-09 06:27 39.58676 -84.15892 36035 ft 448 kts 200°
2026-05-09 06:28 39.52484 -84.16906 36037 ft 448 kts 200°
2026-05-09 06:28 39.46309 -84.17912 36043 ft 447 kts 200°
2026-05-09 06:29 39.40188 -84.18909 36038 ft 444 kts 201°
2026-05-09 06:29 39.34038 -84.19916 36045 ft 446 kts 201°
2026-05-09 06:30 39.27869 -84.20916 36068 ft 445 kts 201°
2026-05-09 06:30 39.21735 -84.21909 36069 ft 444 kts 201°
2026-05-09 06:31 39.15598 -84.22902 36063 ft 443 kts 201°
2026-05-09 06:31 39.09486 -84.23891 36049 ft 442 kts 201°
2026-05-09 06:32 39.03414 -84.24872 36061 ft 440 kts 201°
2026-05-09 06:33 38.94278 -84.26341 36051 ft 440 kts 201°
2026-05-09 06:33 38.88224 -84.27317 36046 ft 438 kts 201°
2026-05-09 06:34 38.79102 -84.28777 36041 ft 438 kts 202°
2026-05-09 06:34 38.73064 -84.29742 36055 ft 438 kts 202°
2026-05-09 06:35 38.66942 -84.30448 36048 ft 445 kts 197°
2026-05-09 06:35 38.60677 -84.30315 36046 ft 459 kts 190°
2026-05-09 06:36 38.54277 -84.29395 36050 ft 464 kts 187°
2026-05-09 06:36 38.47831 -84.28373 36049 ft 465 kts 187°
2026-05-09 06:37 38.41425 -84.27364 36050 ft 463 kts 187°
2026-05-09 06:37 38.35040 -84.26367 36053 ft 463 kts 188°
2026-05-09 06:38 38.28652 -84.25369 36050 ft 462 kts 188°
2026-05-09 06:38 38.22279 -84.24377 36062 ft 461 kts 188°
2026-05-09 06:39 38.15907 -84.23394 36075 ft 463 kts 188°
2026-05-09 06:39 38.09506 -84.22404 36063 ft 461 kts 188°
2026-05-09 06:40 38.03137 -84.21416 36071 ft 461 kts 188°
2026-05-09 06:40 37.96758 -84.20428 36073 ft 460 kts 188°
2026-05-09 06:41 37.90390 -84.19449 36059 ft 461 kts 188°
2026-05-09 06:41 37.87221 -84.18960 36188 ft 460 kts 188°
2026-05-09 06:41 37.84032 -84.18465 36120 ft 456 kts 188°
2026-05-09 06:42 37.77736 -84.17496 36081 ft 455 kts 188°
2026-05-09 06:42 37.71440 -84.16534 36077 ft 455 kts 188°
2026-05-09 06:43 37.65153 -84.15570 36082 ft 455 kts 189°
2026-05-09 06:43 37.58866 -84.14612 36077 ft 454 kts 189°
2026-05-09 06:44 37.52569 -84.13654 36086 ft 455 kts 189°
2026-05-09 06:44 37.46279 -84.12695 36073 ft 454 kts 189°
2026-05-09 06:45 37.40005 -84.11739 36076 ft 453 kts 189°
2026-05-09 06:45 37.33722 -84.10785 36082 ft 452 kts 189°
2026-05-09 06:46 37.27521 -84.09843 36079 ft 452 kts 189°
2026-05-09 06:46 37.21247 -84.08897 36088 ft 451 kts 189°
2026-05-09 06:47 37.14997 -84.07954 36084 ft 452 kts 189°
2026-05-09 06:47 37.08757 -84.07009 36081 ft 450 kts 190°
2026-05-09 06:48 37.02590 -84.06078 36086 ft 450 kts 190°
2026-05-09 06:48 36.96315 -84.05142 36095 ft 452 kts 190°
2026-05-09 06:49 36.90126 -84.04210 36094 ft 452 kts 190°
2026-05-09 06:49 36.83850 -84.03271 36099 ft 451 kts 190°
2026-05-09 06:50 36.77638 -84.02344 36103 ft 448 kts 190°
2026-05-09 06:50 36.71459 -84.01418 36043 ft 447 kts 190°
2026-05-09 06:51 36.68364 -84.00957 35488 ft 447 kts 190°
2026-05-09 06:51 36.65276 -84.00497 34744 ft 447 kts 190°
2026-05-09 06:51 36.62226 -84.00043 33974 ft 448 kts 190°
2026-05-09 06:51 36.59107 -83.99583 33171 ft 449 kts 190°
2026-05-09 06:52 36.56012 -83.99136 32394 ft 451 kts 189°
2026-05-09 06:52 36.52924 -83.98686 31657 ft 452 kts 188°
2026-05-09 06:52 36.49799 -83.98228 30982 ft 451 kts 187°
2026-05-09 06:52 36.46676 -83.97758 30492 ft 446 kts 187°
2026-05-09 06:53 36.43632 -83.97298 30093 ft 443 kts 186°
2026-05-09 06:53 36.40559 -83.96841 29683 ft 442 kts 186°
2026-05-09 06:53 36.37542 -83.96390 29256 ft 437 kts 186°
2026-05-09 06:53 36.34518 -83.95935 28764 ft 434 kts 186°
2026-05-09 06:54 36.31551 -83.95493 28267 ft 429 kts 186°
2026-05-09 06:54 36.28598 -83.95056 27768 ft 425 kts 186°
2026-05-09 06:54 36.25663 -83.94621 27273 ft 421 kts 186°
2026-05-09 06:54 36.22801 -83.94201 26804 ft 417 kts 186°
2026-05-09 06:55 36.19926 -83.93778 26317 ft 413 kts 185°
2026-05-09 06:55 36.17081 -83.93357 25834 ft 409 kts 185°
2026-05-09 06:55 36.14258 -83.92944 25365 ft 405 kts 185°
2026-05-09 06:55 36.11496 -83.92539 24905 ft 401 kts 185°
2026-05-09 06:56 36.08730 -83.92133 24459 ft 398 kts 184°
2026-05-09 06:56 36.05986 -83.91730 24013 ft 394 kts 184°
2026-05-09 06:56 36.03287 -83.91332 23558 ft 391 kts 184°
2026-05-09 06:56 36.00586 -83.90937 23097 ft 389 kts 184°
2026-05-09 06:57 35.97891 -83.90543 22631 ft 387 kts 184°
2026-05-09 06:57 35.95247 -83.90113 22176 ft 389 kts 178°
2026-05-09 06:57 35.92660 -83.88840 21673 ft 412 kts 154°
2026-05-09 06:57 35.90549 -83.86330 21179 ft 428 kts 129°
2026-05-09 06:58 35.89330 -83.82967 20717 ft 434 kts 104°
2026-05-09 06:58 35.88819 -83.79331 20278 ft 432 kts 97°
2026-05-09 06:58 35.88452 -83.75644 19807 ft 430 kts 97°
2026-05-09 06:58 35.88073 -83.71990 19351 ft 428 kts 97°
2026-05-09 06:59 35.87650 -83.68400 18888 ft 425 kts 98°
2026-05-09 06:59 35.87183 -83.64788 18425 ft 423 kts 99°
2026-05-09 06:59 35.86710 -83.61263 17963 ft 420 kts 99°
2026-05-09 06:59 35.86226 -83.57718 17507 ft 417 kts 99°
2026-05-09 07:00 35.85742 -83.54178 17042 ft 415 kts 99°
2026-05-09 07:00 35.85270 -83.50733 16577 ft 413 kts 99°
2026-05-09 07:00 35.84793 -83.47237 16098 ft 411 kts 98°
2026-05-09 07:00 35.84324 -83.43784 15595 ft 409 kts 98°
2026-05-09 07:01 35.83855 -83.40355 15123 ft 407 kts 98°
2026-05-09 07:01 35.83381 -83.36900 14636 ft 404 kts 98°
2026-05-09 07:01 35.82923 -83.33540 14198 ft 400 kts 99°
2026-05-09 07:01 35.82458 -83.30157 13751 ft 396 kts 99°
2026-05-09 07:02 35.82001 -83.26845 13300 ft 392 kts 99°
2026-05-09 07:02 35.81544 -83.23526 12832 ft 388 kts 99°
2026-05-09 07:02 35.81095 -83.20277 12374 ft 385 kts 99°
2026-05-09 07:02 35.80651 -83.17076 11917 ft 381 kts 99°
2026-05-09 07:03 35.80204 -83.13863 11455 ft 377 kts 99°
2026-05-09 07:03 35.79763 -83.10697 10997 ft 373 kts 99°
2026-05-09 07:03 35.79328 -83.07589 10537 ft 370 kts 100°
2026-05-09 07:03 35.78760 -83.04562 10249 ft 360 kts 106°
2026-05-09 07:04 35.78005 -83.01695 10122 ft 340 kts 110°
2026-05-09 07:04 35.77237 -82.99046 10002 ft 319 kts 111°
2026-05-09 07:04 35.76487 -82.96505 9817 ft 314 kts 110°
2026-05-09 07:04 35.75745 -82.93993 9441 ft 313 kts 110°
2026-05-09 07:05 35.75004 -82.91473 9092 ft 310 kts 110°
2026-05-09 07:05 35.74278 -82.88989 8761 ft 307 kts 110°
2026-05-09 07:05 35.73559 -82.86533 8436 ft 303 kts 110°
2026-05-09 07:05 35.72864 -82.84152 8114 ft 289 kts 110°
2026-05-09 07:06 35.72210 -82.81910 7808 ft 273 kts 110°
2026-05-09 07:06 35.71587 -82.79778 7516 ft 258 kts 109°
2026-05-09 07:06 35.70996 -82.77754 7233 ft 245 kts 109°
2026-05-09 07:06 35.70434 -82.75835 6986 ft 230 kts 109°
2026-05-09 07:07 35.69919 -82.74077 6886 ft 207 kts 109°
2026-05-09 07:07 35.69450 -82.72477 6789 ft 186 kts 109°
2026-05-09 07:07 35.69036 -82.71065 6729 ft 170 kts 108°
2026-05-09 07:07 35.68637 -82.69701 6710 ft 167 kts 108°
2026-05-09 07:08 35.68248 -82.68367 6691 ft 166 kts 108°
2026-05-09 07:08 35.67857 -82.67029 6666 ft 166 kts 108°
2026-05-09 07:08 35.67460 -82.65695 6626 ft 167 kts 113°
2026-05-09 07:08 35.66750 -82.64587 6517 ft 167 kts 147°
2026-05-09 07:09 35.65708 -82.64008 6320 ft 163 kts 161°
2026-05-09 07:09 35.64628 -82.63559 6107 ft 161 kts 163°
2026-05-09 07:09 35.63572 -82.63126 5936 ft 159 kts 162°
2026-05-09 07:09 35.62560 -82.62696 5724 ft 148 kts 161°
2026-05-09 07:10 35.61594 -82.62273 5566 ft 147 kts 160°
2026-05-09 07:10 35.60619 -82.61842 5423 ft 146 kts 160°
2026-05-09 07:10 35.59663 -82.61415 5261 ft 146 kts 160°
2026-05-09 07:10 35.58713 -82.60989 5062 ft 145 kts 160°
2026-05-09 07:11 35.57769 -82.60564 4867 ft 144 kts 160°
2026-05-09 07:11 35.56827 -82.60140 4675 ft 143 kts 160°
2026-05-09 07:11 35.55890 -82.59720 4483 ft 141 kts 160°
2026-05-09 07:11 35.54971 -82.59306 4293 ft 140 kts 160°
2026-05-09 07:12 35.54051 -82.58892 4102 ft 139 kts 160°
2026-05-09 07:12 35.53143 -82.58485 3920 ft 139 kts 160°
2026-05-09 07:12 35.52244 -82.58082 3736 ft 138 kts 159°
2026-05-09 07:12 35.51333 -82.57672 3553 ft 138 kts 159°
2026-05-09 07:13 35.50438 -82.57271 3373 ft 137 kts 159°
2026-05-09 07:13 35.49548 -82.56871 3191 ft 136 kts 159°
2026-05-09 07:13 35.48658 -82.56472 3008 ft 135 kts 159°
2026-05-09 07:13 35.47765 -82.56071 2824 ft 135 kts 159°
2026-05-09 07:14 35.46877 -82.55671 2644 ft 135 kts 159°
2026-05-09 07:14 35.45991 -82.55273 2463 ft 135 kts 160°
2026-05-09 07:14 35.45101 -82.54874 2282 ft 135 kts 160°
2026-05-09 07:14 35.44230 -82.54482 2157 ft 126 kts 160°
2026-05-09 07:15 35.43496 -82.54153 2145 ft 94 kts 159°
2026-05-09 07:15 35.43162 -82.54004 2126 ft 24 kts 159°
2026-05-09 07:15 35.43048 -82.53897 2120 ft 20 kts 113°
2026-05-09 07:15 35.43119 -82.53844 2123 ft 13 kts 343°
2026-05-09 07:16 35.43202 -82.53869 2128 ft 10 kts 343°
2026-05-09 07:16 35.43261 -82.53892 2131 ft 7 kts 339°
2026-05-09 07:16 35.43298 -82.53909 2134 ft 4 kts 349°
2026-05-09 07:16 35.43336 -82.53902 2135 ft 6 kts 19°
2026-05-09 07:17 35.43393 -82.53893 2137 ft 9 kts 351°
2026-05-09 07:17 35.43459 -82.53919 2141 ft 10 kts 339°
2026-05-09 07:17 35.43506 -82.53921 2143 ft 2 kts 64°
2026-05-09 07:17 35.43514 -82.53890 2143 ft 1 kts 72°
2026-05-09 07:18 35.43515 -82.53887 2143 ft 0 kts 64°